Kezdőlap
METAR-TAF:

METAR-TAF

Repülőterek :

L.O. Simenstad Municipal Airport

Osceola, Wisconsin, Amerikai Egyesült Államok

földrajzi szélesség: 45-18-31N, földrajzi hosszúság: 092-41-24W, magasság: 275 m

Jelenlegi meteorológiai megfigyelések

A jelentés 36 perccel ezelõtt készült, 18:15 UTC
Észak-északnyugati szél 3 kt
Hőmérséklet 23°C
Páratartalom 83%
Légköri nyomás 1010 hPa
Látótávolság: 16.1 km
Szakadozott felhőzet 1800 lábon
Borult 2600 lábon

METAR: KOEO 221815Z AUTO 33003KT 10SM BKN018 OVC026 23/20 A2982 RMK AO2 T02320201 PWINO

Idő: 13:51 (18:51 UTC)


TAF: hiányzik

Meteorológiai megfigyelések és előrejelzések több, mint 4000 repülőtéren (METAR és TAF jelentéseket).

A térképen piros és sárga pontok jelzik az elérhető meteorológiai állomásokat.

Mozgassa az egeret a pont fölött, hogy megjelenjen az állomás neve.

Azután kattintson az időjárási megfigyelések és előrejelzések megtekintéséhez.

A térkép megváltoztatása: kattintson a fekete keresztel jelölt zöld gombra ráközelítéshez, a vonallal jelölt zöld gombra távolításhoz, vagy a zöld nyilakra a szomszédos térképek eléréséhez.


METAR-TAF: